TimeEDT,TemperatureF,Dew PointF,Humidity,Sea Level PressureIn,VisibilityMPH,Wind Direction,Wind SpeedMPH,Gust SpeedMPH,PrecipitationIn,Events,Conditions,WindDirDegrees,DateUTC
12:15 AM,77.0,71.6,83,30.03,10.0,West,8.1,-,N/A,,Clear,270,2013-08-24 04:15:00
12:35 AM,77.0,69.8,78,30.03,10.0,WNW,8.1,-,N/A,,Clear,300,2013-08-24 04:35:00
12:55 AM,75.2,69.8,83,30.03,10.0,West,5.8,-,N/A,,Clear,280,2013-08-24 04:55:00
1:15 AM,75.2,68.0,78,30.03,10.0,WNW,5.8,-,N/A,,Clear,300,2013-08-24 05:15:00
1:35 AM,75.2,68.0,78,30.03,10.0,WNW,5.8,-,N/A,,Clear,300,2013-08-24 05:35:00
1:55 AM,73.4,68.0,83,30.03,10.0,West,3.5,-,N/A,,Clear,280,2013-08-24 05:55:00
2:15 AM,75.2,68.0,78,30.03,10.0,WNW,3.5,-,N/A,,Mostly Cloudy,290,2013-08-24 06:15:00
2:35 AM,73.4,69.8,88,30.04,10.0,North,9.2,-,N/A,,Mostly Cloudy,360,2013-08-24 06:35:00
2:55 AM,75.2,69.8,83,30.04,10.0,North,6.9,-,N/A,Thunderstorm,Mostly Cloudy,10,2013-08-24 06:55:00
3:15 AM,75.2,66.2,73,30.05,10.0,NW,4.6,-,N/A,Thunderstorm,Mostly Cloudy,310,2013-08-24 07:15:00
3:35 AM,73.4,69.8,88,30.04,9.0,North,6.9,-,N/A,,Mostly Cloudy,350,2013-08-24 07:35:00
3:55 AM,71.6,69.8,94,30.04,10.0,North,4.6,-,0.01,,Scattered Clouds,360,2013-08-24 07:55:00
4:15 AM,71.6,69.8,94,30.04,10.0,West,4.6,-,N/A,,Scattered Clouds,270,2013-08-24 08:15:00
4:35 AM,71.6,68.0,88,30.05,10.0,NW,6.9,-,N/A,,Scattered Clouds,320,2013-08-24 08:35:00
4:55 AM,71.6,68.0,88,30.06,10.0,NNW,5.8,-,N/A,,Clear,330,2013-08-24 08:55:00
5:15 AM,71.6,68.0,88,30.06,10.0,North,9.2,-,N/A,,Scattered Clouds,350,2013-08-24 09:15:00
5:35 AM,71.6,69.8,94,30.06,10.0,North,8.1,-,N/A,,Mostly Cloudy,360,2013-08-24 09:35:00
7:45 AM,71.6,69.8,94,30.11,7.0,NNE,13.8,-,N/A,,Overcast,30,2013-08-24 11:45:00
8:45 AM,73.4,69.8,88,30.14,7.0,NNE,11.5,-,N/A,,Mostly Cloudy,30,2013-08-24 12:45:00
10:45 AM,75.2,66.2,73,30.18,8.0,NNE,15.0,-,N/A,,Mostly Cloudy,20,2013-08-24 14:45:00
11:45 AM,75.2,66.2,73,30.18,8.0,NNE,10.4,-,N/A,,Mostly Cloudy,20,2013-08-24 15:45:00
1:45 PM,80.6,69.8,70,30.18,10.0,NE,11.5,-,N/A,,Scattered Clouds,40,2013-08-24 17:45:00
2:45 PM,80.6,69.8,70,30.17,8.0,East,6.9,-,N/A,,Mostly Cloudy,80,2013-08-24 18:45:00
3:45 PM,80.6,69.8,70,30.17,10.0,ENE,6.9,-,N/A,,Mostly Cloudy,70,2013-08-24 19:45:00
4:50 PM,82.4,64.4,54,30.17,10.0,NE,11.5,-,N/A,,Mostly Cloudy,40,2013-08-24 20:50:00
5:45 PM,80.6,64.4,58,30.17,10.0,NNE,11.5,-,N/A,,Mostly Cloudy,30,2013-08-24 21:45:00
6:45 PM,78.8,64.4,61,30.17,10.0,NE,6.9,-,N/A,,Mostly Cloudy,40,2013-08-24 22:45:00
7:45 PM,78.8,64.4,61,30.18,10.0,NNE,6.9,-,N/A,,Mostly Cloudy,20,2013-08-24 23:45:00
8:46 PM,75.2,64.4,69,30.20,10.0,NNE,8.1,-,N/A,,Mostly Cloudy,30,2013-08-25 00:46:00
9:45 PM,75.2,66.2,73,30.21,10.0,NNE,6.9,-,N/A,,Mostly Cloudy,30,2013-08-25 01:45:00
10:55 PM,73.4,66.2,78,30.23,10.0,NNE,9.2,-,N/A,,Clear,30,2013-08-25 02:55:00
11:15 PM,71.6,66.2,83,30.23,10.0,NNE,8.1,-,N/A,,Clear,30,2013-08-25 03:15:00
11:35 PM,71.6,66.2,83,30.24,10.0,NE,9.2,-,N/A,,Clear,40,2013-08-25 03:35:00
11:55 PM,71.6,64.4,78,30.25,10.0,NNE,8.1,-,N/A,,Clear,30,2013-08-25 03:55:00